If you wish to contribute or participate in the discussions about articles you are invited to join SKYbrary as a registered user

 Actions

Luang Prabang International Airport

From SKYbrary Wiki

VLLB /
Revision as of 12:19, 19 August 2019 by Integration.Manager (talk | contribs)
(diff) ← Older revision | Latest revision (diff) | Newer revision → (diff)
Airport
ICAO: VLLB – IATA: LPQ
Summary
Name Luang Prabang International Airport
Region Asia and Pacific
Territory Laos LA.gif
Location Luang Prabang, Louangphrabang
Serving Luang Prabang
Elevation 291.084 m
955 ft
955 ft291.084 m
Coordinates 19° 53' 49.99" N, 102° 9' 38.99" E
Runways
Designator Length Width Surface ROPS
6/24 2200 m7,217.848 ft
45 m147.638 ft
ASP /


METAR
Observation VLLB 190600Z 06002KT 9999 SCT010 SCT060 BKN080 31/21 Q1012 NOSIG
Station Luang-Prabang
Date/Time 19 September 2019 06:00:00
Wind direction 60°
Wind speed 02 kts
Lowest cloud amount scattered clouds
Temperature 31°C
Dew point 21°C
Humidity 55%
QNH 1012 hPa
Weather condition n/a

International airport serving Luang Prabang, Laos.

Climatology

Tropical savannah climate (Köppen climate classification Aw)

Maps

Terrain

Loading map...

Airport Layout

Loading map...


Accidents & Serious Incidents at or in vicinity of VLLB

None on SKYbrary